Vorticity
10 11 12 13 14 15 15 15 15 14 13 11 9 9 10 11 11 12 13 14 15 14 13 12 12 12 13 13 14 15 16 16 16 15 14 13 11 9 8 6 7 8 12 15 15 14 12 9 10 12 16 19 23 26 27 24 18 14 12 11 10 12 17 22 24 24 23 21 15
7 8 8 9 10 11 10 9 8 7 6 5 4 4 4 5 6 6 7 9 11 12 13 12 12 11 9 9 9 10 12 13 14 14 14 13 12 11 9 7 7 8 11 14 11 8 5 5 8 9 12 16 21 26 29 29 24 19 14 10 -1 -2 5 16 20 21 21 22 22
6 6 6 6 7 7 7 6 5 5 4 4 3 3 3 3 3 3 4 5 7 10 12 13 13 12 11 9 7 7 7 9 11 12 13 13 13 12 11 9 8 9 10 11 7 5 4 6 8 9 10 13 19 25 28 30 28 24 18 9 -10 -18 -15 -3 6 8 8 9 10
6 6 6 6 6 6 6 6 5 5 5 4 4 3 3 3 3 3 3 3 4 6 8 10 12 13 14 12 10 8 6 6 7 8 10 12 13 13 13 12 11 11 11 11 9 8 7 8 10 9 9 8 11 15 18 20 24 27 27 23 7 -7 -15 -13 -6 -3 -3 -3 -2
6 7 7 7 6 6 6 6 5 5 4 4 3 3 3 3 3 2 2 3 4 5 5 6 9 11 13 15 14 12 9 7 6 6 6 8 10 11 13 14 13 13 12 12 11 11 11 11 11 10 7 3 1 3 6 11 22 30 35 37 32 21 9 -1 -0 2 3 2 1
6 7 7 7 7 6 6 6 6 5 4 3 3 3 3 3 3 3 4 4 4 4 3 3 4 6 9 12 14 15 14 12 10 8 7 6 6 7 9 11 12 13 13 12 11 10 9 9 9 8 7 4 1 -0 2 6 10 11 13 15 18 20 19 15 11 11 12 12 11
7 7 7 7 7 7 6 6 6 5 5 4 4 4 4 4 4 4 4 4 4 4 4 4 4 5 6 8 11 13 15 17 17 15 14 11 9 8 7 7 9 10 11 11 11 11 11 11 10 9 7 6 4 2 2 2 0 -2 -3 -2 2 8 14 18 18 19 20 19 17
8 8 7 6 6 6 6 6 6 6 6 6 6 5 5 4 4 4 4 5 6 6 6 5 5 5 5 6 7 10 12 15 18 19 19 18 17 14 12 9 8 8 9 10 11 12 12 11 10 9 8 7 6 5 4 4 4 3 1 -1 1 5 11 16 17 16 15 14 15
8 8 7 6 6 5 5 6 6 7 7 7 7 7 6 6 5 5 5 5 5 5 4 4 5 5 5 5 5 6 8 9 12 14 16 18 18 18 16 13 10 9 9 10 10 9 9 10 11 11 10 9 7 6 6 6 7 8 7 4 4 6 10 14 15 14 13 12 13
8 7 7 7 7 6 5 5 6 6 7 8 8 8 9 8 7 7 6 5 5 6 7 8 8 7 6 4 3 3 2 2 4 6 9 12 15 16 16 15 13 10 7 6 7 9 10 11 12 12 12 11 9 7 6 4 4 5 7 7 7 8 9 9 8 9 12 15 16
10 9 9 8 6 6 5 5 5 5 6 7 7 8 9 9 9 8 7 6 6 7 7 8 8 8 8 6 3 1 -1 -3 -2 0 3 8 11 13 14 15 14 12 10 9 8 9 9 10 11 12 12 12 11 8 6 3 0 1 3 7 10 12 11 7 2 4 10 19 22
11 11 10 9 7 7 6 5 5 4 5 6 7 7 8 8 8 8 8 8 8 8 7 7 7 8 8 8 6 3 -1 -3 -3 -2 1 5 9 12 13 14 14 13 12 11 10 9 9 9 10 11 12 13 12 11 10 8 6 4 4 7 12 15 15 10 2 0 3 12 17
11 11 11 11 10 9 8 6 5 5 5 5 6 6 7 7 8 8 8 9 8 7 6 5 3 4 6 10 11 9 6 1 -1 -2 -1 3 9 12 14 14 14 13 13 12 10 10 9 9 10 11 12 13 14 14 13 12 11 10 9 10 13 15 14 10 4 1 1 3 6
10 10 11 11 11 11 10 8 7 6 6 5 5 5 6 6 7 6 6 5 4 3 3 2 2 3 4 8 12 13 12 8 3 -1 -2 1 8 12 14 14 13 13 12 12 11 10 9 9 10 11 12 13 14 14 14 14 14 13 12 12 12 12 11 8 6 5 5 5 5
11 10 10 10 10 10 10 9 8 7 7 6 5 5 5 5 5 4 3 3 3 3 4 5 4 3 2 4 9 13 15 12 5 0 -3 -1 6 12 15 15 14 13 12 11 11 10 9 9 10 10 11 12 13 12 11 9 9 10 11 12 12 11 11 9 8 7 7 8 8
13 13 12 11 11 10 9 9 8 7 7 6 5 4 4 4 4 4 4 4 4 4 4 4 1 -4 -8 -8 -1 7 13 13 6 0 -4 -4 3 10 15 17 15 13 12 11 10 10 9 9 10 10 11 12 11 9 7 5 4 6 8 10 10 11 12 11 9 8 7 7 8
17 18 18 18 18 17 15 14 13 12 10 8 6 5 4 3 2 3 3 4 4 4 4 4 2 -4 -11 -18 -12 -3 7 12 6 -1 -7 -8 -1 7 15 18 16 14 12 10 10 9 9 9 10 11 13 14 12 10 8 8 8 9 8 7 7 9 12 13 12 11 10 9 8
20 21 22 23 24 25 25 26 25 25 23 21 18 15 12 9 6 5 4 4 5 6 7 8 9 7 3 -6 -10 -6 1 8 3 -3 -8 -9 -3 5 14 19 17 15 12 10 9 8 8 9 11 12 13 13 12 11 11 11 12 10 7 4 6 9 13 16 17 16 14 11 10
19 19 20 21 22 24 26 27 29 30 31 31 31 29 27 24 21 18 15 13 12 11 11 13 16 19 21 19 11 5 1 1 -2 -4 -5 -3 0 6 14 20 18 16 13 11 10 9 10 11 11 11 11 10 9 9 10 10 8 7 6 5 8 11 14 16 19 20 18 14 11
16 16 16 17 18 19 20 21 22 24 26 28 29 30 31 31 30 29 27 25 24 23 22 22 24 26 28 31 32 27 19 10 7 7 8 7 6 9 15 20 19 17 14 12 11 11 11 11 11 10 9 9 9 9 9 6 3 3 5 9 12 15 16 17 19 19 18 14 12
14 14 14 15 15 16 16 17 18 19 20 21 22 23 24 25 26 26 27 27 26 26 26 25 24 23 23 25 32 37 39 35 29 23 17 10 8 11 16 20 19 17 14 11 11 11 11 10 9 9 9 10 11 11 10 6 1 -1 -0 4 10 15 18 19 18 17 15 13 12
12 12 13 13 13 14 14 15 15 16 17 17 18 18 18 19 19 19 20 20 19 19 19 18 18 17 16 17 21 26 29 29 23 17 11 7 10 14 19 22 20 17 13 10 9 9 9 9 9 9 10 11 13 13 12 9 4 -1 -5 -6 -1 6 13 18 18 16 13 12 13
12 12 12 12 12 12 13 13 14 14 15 15 15 16 16 17 17 17 17 16 15 15 14 13 13 14 14 15 15 15 14 12 9 7 8 10 14 17 20 20 19 17 14 12 10 9 9 9 10 10 11 11 12 13 13 13 10 5 -1 -6 -7 -2 7 16 18 16 14 14 18
13 13 12 12 12 12 12 13 13 14 14 15 15 16 16 16 17 17 17 16 15 14 14 14 14 15 16 17 17 16 14 12 11 11 12 14 14 14 13 13 14 14 13 12 11 10 9 9 8 7 6 7 10 11 12 13 14 13 9 2 -3 -1 5 14 17 18 18 20 25
15 14 13 12 12 12 12 12 13 13 14 15 16 17 17 18 18 18 18 18 17 16 16 16 17 19 20 21 21 21 21 20 20 18 17 14 12 9 8 8 9 10 10 11 11 11 10 9 5 2 0 3 7 9 11 14 16 15 12 6 2 3 8 14 18 20 22 24 25
17 15 13 12 12 12 12 12 12 13 14 15 16 17 18 20 21 21 21 20 19 19 18 18 18 18 19 21 23 25 26 25 24 22 19 15 11 8 7 7 8 9 9 10 11 12 12 11 6 2 1 4 8 11 14 17 16 13 10 7 6 9 14 20 21 21 21 21 19
19 16 14 12 11 11 11 12 12 13 14 15 16 17 19 20 21 22 22 21 20 20 19 17 16 14 13 14 17 21 24 25 24 23 21 18 14 11 9 8 8 9 9 10 11 12 12 11 8 7 7 9 12 14 15 15 11 9 8 9 12 17 21 23 21 20 18 17 15
20 18 15 12 10 10 11 11 12 13 14 16 17 18 19 20 20 21 21 21 20 19 18 18 16 13 10 9 10 11 13 17 20 20 20 19 17 16 14 12 11 10 9 9 9 9 9 8 9 11 12 14 14 13 11 8 6 7 9 13 18 21 23 23 21 19 18 17 16
21 19 15 12 10 10 10 11 12 13 15 17 17 18 19 19 19 19 19 19 19 19 19 19 18 17 14 11 5 4 5 8 11 13 15 16 17 17 16 15 13 11 9 7 6 5 5 5 7 9 12 14 13 10 6 3 5 9 14 19 23 25 25 23 23 22 22 21 20
21 18 15 12 10 10 10 11 13 15 16 17 17 18 18 18 18 18 18 19 19 20 20 20 20 20 17 12 7 4 4 5 7 9 12 14 16 17 18 17 14 11 8 7 6 4 4 4 5 8 10 11 8 5 3 3 8 15 22 28 31 30 28 26 25 24 23 21 19
20 17 14 12 10 10 11 12 14 15 17 17 17 17 17 17 18 18 18 19 20 20 20 20 21 21 19 14 10 8 6 6 7 9 11 13 15 16 16 15 12 10 9 8 7 6 5 5 6 7 7 6 4 4 7 13 22 29 35 36 33 30 27 25 22 20 17 14 11
18 15 13 11 11 11 12 14 15 16 17 17 17 17 17 17 17 18 18 18 19 19 19 19 21 21 20 17 14 11 9 7 7 8 9 10 11 12 12 12 12 12 11 10 9 8 7 6 6 6 6 7 10 17 24 33 39 41 39 33 27 23 19 17 13 10 8 6 4
16 14 13 12 12 12 12 13 13 14 14 15 14 14 15 15 16 16 16 16 16 16 16 17 18 20 20 19 16 13 11 8 7 6 6 7 8 9 11 12 12 12 12 11 9 8 8 8 10 13 18 24 32 38 43 46 42 35 27 21 16 12 9 7 5 3 3 2 2
15 13 12 11 10 10 10 9 9 9 9 9 9 10 10 11 12 12 13 13 14 14 14 14 16 18 20 20 18 16 13 11 9 8 8 8 8 9 9 10 10 10 9 9 10 13 17 22 28 35 41 46 47 45 40 32 23 16 10 7 5 4 3 2 2 2 2 2 2
14 12 11 9 8 7 6 5 4 3 3 3 4 5 6 7 8 10 11 12 12 12 12 11 13 15 17 18 18 16 14 13 12 11 10 9 9 8 8 8 10 12 15 19 25 32 39 45 48 49 47 42 34 26 17 10 6 4 3 2 2 2 2 2 2 2 2 2 3
17 14 11 9 8 7 5 4 3 2 1 1 2 3 5 6 8 10 11 12 12 13 13 13 13 13 14 14 14 14 14 14 13 13 13 13 14 15 17 20 25 31 37 42 46 47 47 45 40 33 25 17 11 7 4 2 2 2 2 2 2 2 3 3 4 5 5 6 6
23 21 18 16 14 12 10 8 7 6 5 6 7 8 9 10 12 13 14 14 14 16 17 18 18 18 17 17 17 18 19 20 21 23 25 28 31 34 38 41 44 45 45 44 39 34 27 21 15 10 6 3 2 2 2 3 3 3 3 3 4 4 5 5 6 7 7 7 7
30 28 27 24 22 19 17 15 14 13 14 15 16 16 16 16 17 18 19 20 21 22 24 26 27 27 27 28 29 31 33 36 37 39 40 43 44 44 42 39 35 30 25 20 15 10 7 4 3 3 2 3 3 3 3 3 3 4 5 5 6 6 6 6 6 6 6 6 5
29 29 28 26 24 22 20 19 20 20 21 21 21 21 21 23 26 28 29 31 32 34 35 37 39 39 38 38 39 40 40 41 40 38 35 33 31 27 23 17 13 9 6 4 4 3 3 3 3 3 3 3 4 4 5 5 6 6 6 6 6 6 6 6 6 5 5 5 5
24 25 25 25 24 24 24 25 26 27 27 28 29 31 34 37 38 39 40 40 40 40 40 41 40 39 36 34 32 29 27 25 22 19 16 13 11 9 7 6 5 5 4 4 4 4 4 4 4 4 4 5 5 6 6 6 6 6 6 5 5 5 5 5 5 5 6 6 6
21 23 24 26 28 30 32 34 35 37 38 39 41 42 43 43 41 39 37 36 34 32 30 28 26 23 20 17 14 12 9 8 7 6 6 6 6 6 6 6 6 5 5 5 5 5 5 5 6 6 6 6 6 6 6 6 5 5 5 5 5 5 5 5 5 5 6 6 6
Height
3083 3083 3083 3083 3083 3082 3082 3082 3082 3082 3082 3081 3081 3081 3080 3080 3079 3079 3079 3079 3079 3079 3079 3079 3079 3079 3080 3080 3081 3081 3081 3081 3082 3082 3083 3083 3084 3084 3084 3084 3084 3084 3083 3083 3082 3083 3083 3083 3083 3083 3083 3083 3083 3083 3083 3084 3084 3085 3086 3086 3085 3084 3084 3085 3084 3084 3084 3085 3085
3081 3081 3081 3081 3081 3081 3080 3080 3080 3080 3080 3080 3079 3079 3078 3078 3077 3077 3077 3077 3077 3077 3077 3077 3077 3077 3077 3078 3078 3078 3078 3079 3079 3080 3080 3081 3081 3081 3081 3081 3081 3081 3081 3080 3080 3080 3080 3080 3080 3080 3080 3080 3080 3080 3080 3080 3081 3082 3083 3083 3082 3080 3080 3081 3081 3082 3082 3082 3082
3078 3078 3078 3078 3078 3078 3078 3078 3078 3078 3078 3077 3077 3077 3076 3076 3076 3076 3076 3076 3076 3075 3075 3075 3075 3075 3075 3075 3076 3076 3076 3076 3076 3077 3077 3077 3078 3078 3078 3078 3078 3078 3078 3078 3077 3077 3077 3077 3077 3077 3077 3077 3077 3076 3076 3077 3078 3079 3079 3080 3079 3078 3077 3077 3078 3079 3080 3080 3080
3076 3076 3076 3076 3076 3076 3076 3076 3076 3076 3075 3075 3075 3074 3074 3074 3074 3074 3074 3074 3074 3073 3073 3073 3073 3073 3073 3073 3073 3073 3073 3073 3074 3074 3074 3075 3075 3075 3075 3075 3075 3075 3076 3076 3076 3075 3075 3075 3075 3075 3075 3075 3075 3074 3074 3074 3075 3076 3076 3076 3076 3076 3075 3075 3075 3076 3076 3077 3077
3074 3074 3074 3074 3074 3074 3073 3073 3073 3073 3073 3072 3072 3072 3072 3072 3072 3072 3072 3072 3071 3071 3071 3071 3071 3071 3071 3071 3071 3071 3071 3071 3071 3071 3071 3072 3072 3072 3072 3072 3072 3072 3072 3072 3073 3072 3072 3072 3072 3072 3072 3072 3072 3072 3071 3071 3072 3072 3073 3073 3073 3073 3073 3073 3073 3073 3074 3074 3075
3072 3072 3071 3071 3071 3071 3071 3071 3071 3071 3071 3070 3070 3070 3070 3070 3070 3070 3070 3069 3069 3069 3069 3069 3069 3069 3069 3069 3069 3069 3069 3068 3069 3069 3069 3069 3069 3070 3070 3070 3070 3070 3070 3069 3069 3069 3069 3069 3069 3070 3069 3069 3069 3070 3069 3069 3070 3071 3071 3071 3071 3071 3070 3070 3071 3071 3071 3071 3071
3069 3069 3069 3069 3069 3069 3069 3069 3069 3069 3068 3068 3068 3068 3067 3067 3067 3067 3067 3067 3067 3067 3067 3067 3067 3067 3066 3066 3066 3066 3066 3066 3066 3066 3066 3066 3067 3067 3067 3067 3067 3066 3066 3066 3066 3066 3066 3066 3067 3067 3067 3067 3067 3067 3067 3068 3068 3068 3068 3068 3068 3068 3068 3068 3068 3068 3068 3068 3068
3067 3067 3067 3067 3067 3067 3067 3066 3066 3066 3066 3066 3066 3066 3065 3065 3065 3065 3064 3064 3064 3064 3065 3065 3065 3065 3064 3064 3064 3064 3064 3064 3064 3064 3064 3064 3064 3064 3065 3064 3064 3064 3064 3063 3063 3063 3063 3063 3064 3064 3064 3065 3065 3065 3065 3066 3066 3066 3066 3066 3066 3066 3066 3065 3066 3066 3066 3065 3065
3064 3064 3064 3064 3064 3064 3064 3064 3064 3064 3064 3064 3064 3063 3063 3063 3062 3062 3062 3061 3062 3062 3062 3062 3062 3062 3062 3062 3062 3062 3062 3062 3062 3062 3062 3062 3062 3062 3061 3061 3061 3061 3061 3060 3061 3061 3061 3061 3061 3061 3062 3063 3063 3063 3063 3063 3063 3063 3063 3063 3063 3063 3063 3063 3063 3063 3063 3063 3062
3061 3061 3061 3061 3061 3062 3062 3061 3061 3061 3061 3061 3061 3061 3061 3061 3060 3060 3059 3059 3059 3059 3059 3059 3060 3060 3060 3060 3060 3060 3060 3060 3060 3060 3060 3060 3059 3059 3059 3059 3059 3059 3058 3058 3058 3058 3058 3059 3059 3059 3060 3060 3061 3061 3060 3060 3060 3060 3060 3060 3061 3061 3061 3061 3061 3061 3061 3060 3060
3059 3059 3059 3059 3059 3059 3059 3059 3059 3059 3059 3059 3058 3058 3058 3058 3058 3057 3057 3057 3057 3056 3056 3056 3057 3057 3057 3057 3057 3058 3058 3058 3058 3058 3058 3057 3057 3057 3056 3056 3056 3056 3056 3056 3056 3056 3056 3056 3057 3057 3057 3058 3058 3058 3058 3058 3058 3057 3057 3057 3058 3058 3058 3058 3058 3058 3057 3057 3056
3056 3056 3056 3056 3056 3056 3056 3056 3056 3056 3056 3056 3056 3056 3056 3055 3055 3055 3055 3054 3054 3054 3054 3054 3054 3054 3054 3054 3054 3054 3055 3055 3056 3056 3056 3056 3055 3055 3055 3054 3054 3054 3054 3054 3054 3054 3054 3054 3054 3055 3055 3055 3056 3056 3056 3056 3056 3055 3055 3055 3055 3055 3055 3055 3055 3055 3054 3054 3054
3054 3054 3054 3054 3054 3054 3054 3053 3053 3053 3053 3053 3053 3053 3052 3052 3052 3052 3052 3051 3051 3051 3051 3051 3051 3051 3051 3051 3051 3051 3051 3052 3052 3053 3053 3053 3053 3053 3052 3052 3051 3051 3051 3051 3051 3052 3052 3052 3052 3052 3052 3052 3053 3053 3053 3053 3053 3053 3053 3052 3052 3052 3052 3052 3052 3052 3051 3051 3051
3051 3051 3051 3051 3051 3051 3051 3051 3050 3050 3050 3050 3050 3050 3050 3050 3050 3049 3049 3048 3048 3047 3048 3048 3048 3048 3048 3049 3049 3049 3049 3049 3049 3050 3050 3051 3051 3051 3050 3050 3049 3049 3049 3049 3049 3049 3049 3049 3050 3050 3050 3050 3050 3050 3050 3051 3051 3051 3050 3050 3050 3050 3049 3049 3049 3049 3049 3049 3049
3048 3048 3048 3048 3048 3048 3048 3047 3047 3047 3047 3047 3047 3047 3047 3047 3047 3046 3046 3046 3045 3045 3045 3045 3045 3045 3045 3045 3045 3046 3046 3046 3046 3046 3047 3047 3048 3048 3048 3047 3047 3046 3046 3046 3046 3047 3047 3047 3047 3047 3047 3047 3047 3047 3048 3048 3048 3047 3047 3047 3047 3047 3047 3046 3046 3046 3046 3046 3046
3045 3045 3045 3045 3045 3045 3045 3044 3044 3044 3044 3044 3044 3044 3044 3044 3044 3044 3043 3043 3042 3042 3042 3041 3041 3041 3041 3041 3041 3042 3042 3042 3042 3043 3043 3044 3045 3045 3045 3045 3044 3044 3044 3044 3044 3044 3044 3044 3044 3044 3044 3045 3045 3045 3045 3045 3045 3044 3044 3045 3045 3044 3044 3044 3044 3044 3044 3044 3044
3042 3042 3042 3042 3042 3042 3041 3041 3041 3041 3041 3041 3041 3041 3041 3041 3041 3041 3041 3040 3040 3039 3039 3038 3037 3037 3037 3037 3037 3038 3038 3038 3039 3039 3040 3041 3041 3042 3042 3042 3042 3042 3042 3042 3041 3042 3042 3042 3042 3042 3042 3042 3042 3042 3042 3042 3041 3041 3042 3042 3042 3042 3041 3041 3041 3041 3041 3041 3041
3040 3039 3039 3039 3039 3039 3038 3038 3038 3038 3038 3037 3037 3038 3038 3038 3038 3037 3037 3037 3037 3036 3036 3036 3035 3035 3034 3034 3034 3035 3035 3035 3035 3036 3037 3038 3039 3039 3040 3040 3039 3039 3039 3039 3039 3039 3039 3039 3039 3039 3039 3039 3039 3039 3039 3039 3039 3039 3039 3039 3039 3039 3038 3038 3037 3037 3037 3037 3037
3037 3037 3036 3036 3036 3036 3036 3035 3035 3035 3034 3034 3034 3034 3034 3034 3034 3034 3034 3034 3034 3033 3033 3032 3032 3032 3031 3031 3032 3032 3032 3032 3032 3033 3034 3035 3036 3036 3037 3037 3037 3036 3036 3037 3037 3037 3037 3036 3036 3036 3036 3036 3036 3036 3036 3036 3036 3036 3036 3036 3036 3035 3035 3034 3034 3034 3034 3034 3034
3035 3034 3034 3034 3033 3033 3032 3032 3032 3031 3031 3031 3031 3031 3031 3031 3031 3031 3031 3030 3030 3030 3030 3029 3029 3029 3028 3028 3028 3028 3028 3029 3030 3031 3031 3032 3033 3034 3034 3034 3034 3034 3034 3034 3034 3034 3034 3034 3033 3033 3033 3033 3033 3033 3033 3033 3033 3033 3033 3033 3032 3032 3032 3031 3031 3031 3031 3031 3031
3032 3032 3031 3031 3031 3030 3030 3029 3029 3029 3028 3028 3028 3027 3027 3027 3027 3027 3027 3027 3027 3027 3027 3026 3026 3026 3026 3025 3025 3025 3026 3026 3027 3028 3029 3030 3031 3031 3031 3031 3031 3031 3031 3031 3031 3031 3031 3031 3031 3030 3030 3030 3030 3030 3030 3030 3031 3031 3030 3030 3030 3030 3029 3029 3029 3028 3028 3029 3029
3030 3029 3029 3028 3028 3028 3027 3027 3026 3026 3026 3025 3025 3025 3024 3024 3024 3024 3024 3024 3024 3024 3024 3024 3024 3024 3024 3023 3023 3024 3024 3025 3025 3026 3027 3028 3028 3029 3029 3029 3029 3029 3029 3029 3028 3028 3028 3028 3028 3028 3028 3027 3028 3028 3028 3028 3028 3028 3028 3028 3028 3028 3027 3027 3026 3026 3026 3026 3026
3027 3027 3026 3026 3026 3025 3025 3024 3024 3023 3023 3023 3022 3022 3022 3021 3021 3021 3021 3021 3021 3021 3021 3021 3021 3021 3021 3021 3022 3022 3022 3023 3023 3024 3025 3026 3026 3026 3026 3026 3027 3027 3026 3026 3026 3026 3026 3026 3026 3026 3026 3026 3026 3026 3026 3026 3026 3026 3026 3026 3026 3026 3025 3025 3024 3024 3024 3024 3024
3025 3024 3024 3023 3023 3022 3022 3022 3021 3021 3021 3020 3020 3020 3019 3019 3019 3019 3019 3019 3019 3019 3019 3019 3019 3019 3019 3020 3020 3020 3021 3021 3021 3022 3023 3023 3024 3024 3024 3024 3025 3025 3024 3024 3024 3024 3024 3024 3024 3024 3025 3025 3024 3024 3024 3024 3024 3024 3024 3024 3024 3024 3023 3023 3022 3022 3022 3022 3022
3022 3021 3021 3020 3020 3020 3020 3019 3019 3019 3018 3018 3017 3017 3017 3016 3016 3016 3016 3016 3016 3016 3016 3016 3017 3017 3017 3017 3018 3018 3018 3019 3019 3020 3020 3021 3021 3021 3022 3022 3022 3022 3022 3022 3022 3022 3022 3022 3022 3023 3023 3022 3022 3022 3022 3022 3022 3022 3022 3022 3022 3022 3021 3021 3020 3020 3020 3020 3020
3019 3018 3018 3018 3017 3017 3017 3017 3016 3016 3016 3016 3015 3015 3014 3014 3014 3014 3013 3013 3013 3014 3014 3014 3015 3015 3016 3016 3016 3016 3016 3017 3017 3017 3018 3018 3019 3019 3019 3019 3020 3020 3020 3020 3020 3020 3020 3021 3021 3021 3021 3020 3020 3020 3020 3020 3020 3020 3020 3020 3020 3020 3019 3019 3018 3018 3019 3019 3019
3016 3016 3016 3015 3015 3015 3015 3015 3014 3014 3014 3014 3013 3013 3012 3012 3011 3011 3011 3011 3011 3011 3011 3012 3012 3013 3014 3014 3014 3015 3015 3015 3015 3015 3016 3016 3016 3017 3017 3017 3018 3018 3018 3018 3019 3019 3019 3019 3019 3019 3019 3019 3018 3018 3018 3018 3018 3018 3018 3018 3018 3018 3017 3017 3017 3017 3017 3017 3017
3013 3013 3013 3013 3013 3013 3013 3013 3012 3012 3012 3011 3011 3011 3010 3010 3010 3010 3009 3009 3009 3009 3009 3010 3010 3011 3011 3011 3012 3013 3013 3013 3013 3013 3013 3014 3014 3015 3015 3016 3016 3016 3017 3017 3017 3017 3017 3017 3017 3017 3017 3017 3017 3017 3017 3017 3017 3017 3016 3016 3016 3016 3016 3016 3016 3016 3015 3015 3015
3011 3011 3011 3011 3011 3011 3011 3011 3011 3010 3010 3010 3009 3009 3009 3008 3008 3008 3008 3008 3008 3008 3008 3008 3008 3009 3009 3009 3010 3010 3011 3011 3011 3011 3011 3012 3012 3013 3013 3014 3014 3015 3015 3016 3016 3016 3016 3016 3016 3016 3016 3016 3015 3015 3015 3015 3015 3015 3015 3015 3015 3014 3014 3014 3014 3014 3014 3014 3014
3009 3009 3009 3009 3009 3009 3009 3009 3009 3009 3008 3008 3008 3007 3007 3007 3007 3007 3007 3007 3007 3007 3007 3007 3007 3008 3008 3008 3008 3008 3009 3009 3009 3010 3010 3010 3011 3011 3011 3012 3013 3013 3013 3014 3014 3014 3014 3014 3014 3014 3014 3014 3014 3014 3014 3014 3013 3013 3013 3013 3013 3012 3012 3012 3012 3012 3012 3012 3013
3007 3007 3007 3007 3008 3008 3008 3008 3008 3007 3007 3007 3006 3006 3006 3006 3006 3006 3006 3006 3006 3006 3007 3007 3007 3007 3007 3008 3007 3007 3008 3008 3008 3009 3009 3009 3010 3010 3010 3011 3011 3011 3011 3012 3012 3012 3012 3012 3012 3012 3012 3012 3012 3012 3012 3012 3011 3011 3011 3011 3011 3011 3011 3011 3011 3011 3011 3011 3011
3005 3006 3006 3006 3006 3006 3006 3006 3006 3006 3006 3006 3006 3006 3006 3006 3006 3006 3006 3006 3006 3006 3006 3006 3006 3007 3007 3007 3007 3007 3007 3008 3008 3008 3008 3009 3009 3009 3009 3009 3010 3010 3010 3010 3010 3010 3010 3010 3010 3010 3010 3010 3010 3010 3010 3010 3010 3010 3009 3009 3009 3009 3010 3010 3010 3010 3011 3011 3011
3004 3004 3004 3005 3005 3005 3006 3006 3006 3006 3005 3005 3005 3005 3005 3005 3005 3005 3005 3005 3005 3006 3006 3006 3006 3006 3006 3007 3007 3007 3007 3007 3007 3008 3008 3008 3008 3008 3008 3008 3008 3008 3008 3008 3009 3009 3008 3008 3008 3008 3008 3008 3008 3008 3008 3008 3008 3008 3008 3008 3008 3009 3009 3009 3009 3009 3009 3009 3009
3003 3003 3003 3004 3004 3004 3005 3005 3005 3005 3005 3005 3005 3005 3005 3005 3004 3004 3005 3005 3005 3005 3005 3005 3006 3006 3006 3006 3006 3006 3006 3007 3007 3007 3007 3007 3007 3007 3007 3007 3007 3007 3007 3007 3007 3007 3007 3007 3007 3007 3007 3007 3007 3007 3007 3007 3007 3007 3007 3007 3008 3008 3008 3008 3008 3008 3008 3008 3008
3002 3002 3003 3003 3003 3004 3004 3004 3004 3004 3004 3004 3004 3004 3004 3004 3004 3004 3004 3004 3004 3005 3005 3005 3005 3005 3005 3005 3006 3006 3006 3006 3006 3006 3006 3006 3006 3006 3006 3006 3006 3006 3006 3006 3006 3006 3005 3005 3006 3006 3006 3006 3006 3006 3006 3006 3006 3006 3006 3007 3007 3007 3007 3007 3007 3007 3007 3006 3006
3002 3002 3002 3003 3003 3003 3004 3004 3004 3004 3004 3004 3004 3004 3004 3004 3003 3003 3003 3004 3004 3004 3004 3004 3004 3004 3004 3004 3005 3005 3005 3005 3005 3005 3005 3005 3005 3005 3005 3005 3005 3005 3005 3004 3004 3004 3005 3005 3005 3005 3005 3005 3005 3005 3005 3005 3006 3006 3006 3006 3006 3006 3006 3006 3006 3006 3005 3005 3005
3002 3002 3002 3002 3003 3003 3003 3004 3004 3004 3004 3004 3004 3003 3003 3003 3003 3003 3003 3003 3003 3003 3003 3003 3003 3003 3003 3003 3003 3004 3004 3004 3004 3004 3004 3004 3004 3004 3004 3004 3004 3004 3004 3004 3004 3004 3004 3005 3005 3005 3005 3004 3004 3005 3005 3005 3005 3005 3005 3005 3005 3005 3005 3004 3004 3004 3003 3003 3002
3002 3002 3002 3002 3003 3003 3003 3003 3003 3003 3003 3003 3003 3003 3003 3003 3003 3003 3002 3002 3002 3002 3002 3002 3002 3002 3002 3002 3002 3002 3002 3002 3002 3003 3003 3003 3003 3003 3003 3003 3003 3004 3004 3004 3004 3004 3004 3004 3004 3004 3004 3004 3004 3004 3005 3005 3005 3004 3004 3004 3004 3003 3003 3002 3002 3002 3001 3001 3001
3003 3002 3002 3002 3002 3003 3003 3003 3003 3003 3003 3003 3003 3003 3003 3003 3003 3002 3002 3002 3002 3002 3002 3002 3002 3002 3002 3002 3002 3002 3002 3002 3002 3002 3002 3003 3003 3003 3003 3004 3004 3004 3004 3004 3005 3004 3004 3004 3004 3004 3004 3004 3004 3004 3004 3004 3004 3003 3003 3002 3002 3001 3001 3001 3001 3000 3000 3000 2999
3003 3003 3002 3002 3002 3003 3003 3003 3003 3003 3003 3003 3003 3003 3003 3003 3003 3003 3003 3003 3002 3002 3002 3002 3002 3002 3002 3002 3002 3002 3003 3003 3003 3003 3003 3004 3004 3004 3004 3005 3005 3005 3005 3005 3005 3004 3004 3004 3004 3004 3004 3003 3003 3003 3003 3003 3002 3002 3001 3001 3001 3000 3000 3000 3000 2999 2999 2998 2997
3004 3003 3003 3003 3003 3003 3004 3004 3004 3004 3004 3004 3004 3004 3004 3004 3004 3004 3004 3004 3004 3004 3003 3003 3003 3004 3004 3004 3004 3004 3004 3004 3004 3004 3005 3005 3005 3005 3005 3005 3005 3005 3005 3004 3004 3004 3004 3003 3003 3003 3003 3003 3003 3003 3002 3002 3001 3001 3001 3000 3000 2999 2999 2998 2998 2998 2997 2996 2995